STARLINK-1944, 46796

Orbit data source: Space-Track

STARLINK-1944, 46796 is a payload satellite owned by SpaceX/Seattle (US) in LEO that was launched on Sat, 24 Oct 2020 UTC via an FALCON 9 launch vehicle from the Air Force Eastern Test Range (AFETR). Payload-class satellites include a variety of spacecraft equipped with specific instruments for various scientific and technological missions. These include communications satellites like Starlink; space stations such as the ISS; scientific satellites like the Hubble; Earth observation satellites from companies like Planet Labs, Umbra, and HawkEye 360; GPS; miniature CubeSats for education and research; and military/defense satellites.

Loading next visibility...
Identifier
46796, 2020-074BK
Orbit
LEO
Country
Flag of USUS
Related business
Manufacturer
SpaceX/Seattle
Mission
Partially operational Commercial Communications
Bus & Motor
STARLINK, Unknown motor
Mass
260 kg wet, ~248 kg dry
Launch date (UTC)
2020-10-24 (5 years ago)
Launch vehicle
FALCON 9
Launch site
Air Force Eastern Test Range (AFETR)
Object type
Payload
Rocket body
Debris
Shape & HBR
Box + 1 Pan, 10.1 m
Radar Cross Section
13.562 m², Large (>1 m²)

Expand to show TLE details & history
Last TLE update: 11 hours ago

TLE from 11 hours ago
0 STARLINK-1944
1 46796U 20074BK  25350.00003472  .00097972  00000-0  19164-2 0  9993
2 46796  53.0540 315.2930 0013312  56.2438 158.5177 15.46566715  5894
Epoch: 2025-12-16T00:00Z
TLE epoch observation values (Epoch: 2025-12-16T00:00:02.999Z)
Latitude
-27.35226°
Longitude
73.15083°
Altitude
443.335 km
Speed
7.641 km/s
True Right ascension
10h 32m 12s
True Declination
-27° 12' 21"
Sunlit
Object was in daylight at epoch
Visualization orbit readout
Latitude
Unknown
Longitude
Unknown
Altitude
Unknown
Speed
Unknown
Apparent Right ascension
Unknown
Apparent Declination
Unknown
Sunlit
N/A
Visualization observer readout
Local Sidereal Time
09:44:29
Azimuth
Unknown
Elevation
Unknown
Doppler factor
Unknown
Orbital elements
Apogee altitude
436.113 km
Perigee altitude
417.995 km
Semi-major axis
6,805.191 km
Eccentricity
0.00133
Inclination
53.054°
RAAN
315.293°
Arg. of periapsis
56.2438°
True anomaly
158.57348°
Mean anomaly
158.5177°
Eccentric anomaly
158.5456°
Mean motion
3.86619 °/min
Orbital period
93.12 mins
BSTAR
0.0019164
Loading maneuver chart data...
Computing Atmospheric mass density...

Documentation

Showing up to 5 results
|